Terminal Aerodrome Forecast
Issued by NWS Buffalo, NY

Home | Current Version | Previous Version | Text Only | Print | Product List | Glossary On
Versions: 1 2 3 4 5 6 7 8 9 10 11 12 13 14 15 16 17 18 19 20 21 22 23 24 25 26 27
535
FTUS41 KBUF 280538
TAFART
TAF
KART 280538Z 2806/2906 21004KT P6SM BKN200
     FM280700 20004KT P6SM BKN100
     FM281600 24008KT P6SM BKN080
     FM282300 32004KT P6SM BKN100
     FM290000 VRB03KT P6SM BKN100=

USA.gov is the U.S. government's official web portal to all federal, state and local government web resources and services.